[TLELIST] Archives

 

[TLELIST] Current TLEs

May 26th 2024 PDT

HST 1 20580U 90037B 24146.36646801 .00006185 00000-0 29110-3 0 9991 2 20580 28.4666 137.9939 0002739 144.8429 215.2345 15.17462418673561 ISS (ZARYA) 1 25544U 98067A 24147.31178333 .00009588 00000-0 17286-3 0 9994 2 25544 51.6408 63.7429 0004739 238.7027 268.0195 15.50474033455152 CXO 1 25867U 99040B 24149.35049423 .00000720 00000-0 00000-0 0 9999 2 25867 40.6804 155.7827 8908050 295.0223 359.9343 0.37806773 14484 ...Continue Reading

[TLELIST] Current TLEs

May 25th 2024 PDT

HST 1 20580U 90037B 24146.16916358 .00006345 00000-0 29886-3 0 9994 2 20580 28.4666 139.3152 0002743 143.4174 216.6606 15.17459787673796 ISS (ZARYA) 1 25544U 98067A 24146.47503061 -.00007328 00000-0 -11851-3 0 9994 2 25544 51.6399 67.8917 0005513 236.8874 276.2667 15.50443312455025 CXO 1 25867U 99040B 24146.70693382 .00000710 00000-0 00000-0 0 9993 2 25867 40.6231 156.0161 8910656 294.8672 359.9653 0.37810235 14485 ...Continue Reading

[TLELIST] Current TLEs

May 24th 2024 PDT

HST 1 20580U 90037B 24144.45917662 .00006800 00000-0 32120-3 0 9994 2 20580 28.4666 150.7666 0002799 126.2798 233.8053 15.17436414673277 ISS (ZARYA) 1 25544U 98067A 24145.31322896 .00023680 00000-0 39557-3 0 9991 2 25544 51.6395 73.6504 0003274 199.0305 302.8059 15.51802432454842 CXO 1 25867U 99040B 24146.70693382 .00000710 00000-0 00000-0 0 9993 2 25867 40.6231 156.0161 8910656 294.8672 359.9653 0.37810235 14485 ...Continue Reading

[TLELIST] Current TLEs

May 23rd 2024 PDT

HST 1 20580U 90037B 24143.47263329 .00007111 00000-0 33642-3 0 9995 2 20580 28.4665 157.3741 0002827 117.4044 242.6836 15.17422391673121 ISS (ZARYA) 1 25544U 98067A 24144.34779811 .00024124 00000-0 40342-3 0 9994 2 25544 51.6388 78.4485 0003310 198.3473 306.6341 15.51759236454696 CXO 1 25867U 99040B 24146.70674190 .00000710 00000-0 00000-0 0 9999 2 25867 40.6232 156.0161 8910656 294.8672 359.9391 0.37810263 14475 ...Continue Reading

[TLELIST] Current TLEs

May 22nd 2024 PDT

HST 1 20580U 90037B 24143.14378366 .00007245 00000-0 34302-3 0 9999 2 20580 28.4667 159.5766 0002772 113.4123 246.6761 15.17417371673333 ISS (ZARYA) 1 25544U 98067A 24143.31696429 .00022241 00000-0 37327-3 0 9990 2 25544 51.6396 83.5695 0003239 196.4457 306.2391 15.51710854454533 CXO 1 25867U 99040B 24144.06363878 .00000674 00000-0 00000-0 0 9993 2 25867 40.5814 156.2306 8913299 294.7194 0.0380 0.37813759 14472 ...Continue Reading

[TLELIST] Current TLEs

May 21st 2024 PDT

HST 1 20580U 90037B 24141.49951781 .00008641 00000-0 41117-3 0 9996 2 20580 28.4671 170.5879 0002810 98.0074 262.0837 15.17393673672829 ISS (ZARYA) 1 25544U 98067A 24142.35003124 .00025335 00000-0 42455-3 0 9992 2 25544 51.6384 88.3676 0003163 192.6310 305.1222 15.51672766454387 CXO 1 25867U 99040B 24144.06363878 .00000674 00000-0 00000-0 0 9993 2 25867 40.5814 156.2306 8913299 294.7194 0.0380 0.37813759 14472 ...Continue Reading

[TLELIST] Current TLEs

May 20th 2024 PDT

HST 1 20580U 90037B 24140.51294472 .00009875 00000-0 47139-3 0 9995 2 20580 28.4673 177.1946 0002790 88.7588 271.3324 15.17377538672671 ISS (ZARYA) 1 25544U 98067A 24141.38489656 .00028504 00000-0 47719-3 0 9991 2 25544 51.6385 93.1612 0003297 187.7096 315.3150 15.51632182454231 CXO 1 25867U 99040B 24141.41825767 .00000654 00000-0 00000-0 0 9997 2 25867 40.5518 156.4184 8917274 294.5910 359.8498 0.37815615 14456 ...Continue Reading

[TLELIST] Current TLEs

May 19th 2024 PDT

HST 1 20580U 90037B 24140.18408458 .00008630 00000-0 41091-3 0 9998 2 20580 28.4674 179.3968 0002790 85.5823 274.5088 15.17370184672882 ISS (ZARYA) 1 25544U 98067A 24140.20295706 .00030653 00000-0 51361-3 0 9998 2 25544 51.6379 99.0325 0003255 185.3717 191.2672 15.51568711454054 CXO 1 25867U 99040B 24141.41825767 .00000654 00000-0 00000-0 0 9997 2 25867 40.5518 156.4184 8917274 294.5910 359.8498 0.37815615 14456 ...Continue Reading

[TLELIST] Current TLEs

May 18th 2024 PDT

HST 1 20580U 90037B 24138.80285684 .00009277 00000-0 44278-3 0 9996 2 20580 28.4675 188.6456 0002768 73.2263 286.8633 15.17339470672419 ISS (ZARYA) 1 25544U 98067A 24139.38688398 .00027809 00000-0 46772-3 0 9997 2 25544 51.6393 103.0830 0003363 180.5683 314.8310 15.51515061453923 CXO 1 25867U 99040B 24141.41825767 .00000654 00000-0 00000-0 0 9997 2 25867 40.5518 156.4184 8917274 294.5910 359.8498 0.37815615 14456 ...Continue Reading

[TLELIST] Current TLEs

May 18th 2024 PDT

HST 1 20580U 90037B 24138.80285684 .00009277 00000-0 44278-3 0 9996 2 20580 28.4675 188.6456 0002768 73.2263 286.8633 15.17339470672419 ISS (ZARYA) 1 25544U 98067A 24139.38688398 .00027809 00000-0 46772-3 0 9997 2 25544 51.6393 103.0830 0003363 180.5683 314.8310 15.51515061453923 CXO 1 25867U 99040B 24141.41825767 .00000654 00000-0 00000-0 0 9997 2 25867 40.5518 156.4184 8917274 294.5910 359.8498 0.37815615 14456 ...Continue Reading
  • This mailing list is a public mailing list - anyone may join or leave, at any time.
  • This mailing list is announce-only.

International Space Station (ISS) / Hubble Space Telescope (HST) / Chandra X-Ray Observatory Orbital Data via EMAIL

Privacy Policy:

Private list